Simultaneous Nadir Overpasses (SNOs) Predictions

Prediction of SNOs between GOES-17 and TERRA Satellite Orbit:

Table of predicted SNOs for the next 14.0 days since TLE Epoch: 4/9/2022
Index Date Time (GOES-17) GOES-17 Lat,Lon TERRA Lat,Lon Distance(km) Time Diff (sec)
1 04/09/2022 07:33:58 -0.05,-137.21 -0.18,-137.86 74.14 80
2 04/11/2022 07:19:05 -0.04,-137.20 0.43,-134.91 260.04 80
3 04/11/2022 19:40:19 0.04,-137.19 0.68,-140.07 327.44 80
4 04/13/2022 19:30:46 0.04,-137.18 0.05,-137.12 6.94 80
5 04/15/2022 19:18:34 0.04,-137.16 -0.58,-134.17 339.80 80
6 04/16/2022 07:39:57 -0.04,-137.16 -0.51,-139.37 251.06 80
7 04/18/2022 07:25:03 -0.04,-137.14 0.08,-136.41 81.48 80
8 04/20/2022 07:12:50 -0.04,-137.10 0.74,-133.47 412.78 80
9 04/20/2022 19:34:05 0.04,-137.08 0.35,-138.63 175.67 80
10 04/22/2022 19:24:31 0.03,-137.04 -0.26,-135.67 154.62 80
